TimeEDT,TemperatureF,Dew PointF,Humidity,Sea Level PressureIn,VisibilityMPH,Wind Direction,Wind SpeedMPH,Gust SpeedMPH,PrecipitationIn,Events,Conditions,WindDirDegrees,DateUTC
12:55 AM,73.6,70.5,90,29.99,10.0,East,4.6,-,N/A,,Clear,80,2012-10-15 04:55:00
1:35 AM,71.6,69.8,94,29.99,5.0,NNE,3.5,-,N/A,,Clear,30,2012-10-15 05:35:00
1:39 AM,71.6,69.8,94,29.99,4.0,NE,4.6,-,N/A,,Clear,40,2012-10-15 05:39:00
1:41 AM,71.6,69.8,94,29.99,4.0,NE,4.6,-,N/A,,Clear,50,2012-10-15 05:41:00
1:44 AM,71.6,69.8,94,29.98,5.0,NE,5.8,-,N/A,,Clear,50,2012-10-15 05:44:00
1:55 AM,72.3,70.9,95,29.98,10.0,NE,4.6,-,N/A,,Clear,50,2012-10-15 05:55:00
2:28 AM,73.4,71.6,94,29.97,6.0,NE,3.5,-,N/A,,Clear,50,2012-10-15 06:28:00
2:31 AM,73.4,71.6,94,29.96,7.0,NE,3.5,-,N/A,,Clear,50,2012-10-15 06:31:00
2:44 AM,73.4,71.6,94,29.96,8.0,Calm,Calm,-,N/A,,Clear,0,2012-10-15 06:44:00
2:55 AM,72.3,70.9,95,29.96,5.0,NE,3.5,-,N/A,,Clear,50,2012-10-15 06:55:00
2:59 AM,71.6,69.8,94,29.96,5.0,NE,3.5,-,N/A,,Clear,50,2012-10-15 06:59:00
3:00 AM,71.6,69.8,94,29.96,5.0,NE,3.5,-,N/A,,Clear,50,2012-10-15 07:00:00
3:06 AM,71.6,71.6,100,29.96,6.0,ENE,4.6,-,N/A,,Clear,60,2012-10-15 07:06:00
3:55 AM,71.8,71.2,98,29.94,8.0,Calm,Calm,-,N/A,,Clear,0,2012-10-15 07:55:00
4:02 AM,71.6,71.6,100,29.94,5.0,NNE,3.5,-,N/A,,Partly Cloudy,30,2012-10-15 08:02:00
4:12 AM,71.6,71.6,100,29.94,4.0,North,4.6,-,N/A,,Mostly Cloudy,360,2012-10-15 08:12:00
4:55 AM,72.9,72.5,99,29.94,9.0,North,3.5,-,N/A,,Overcast,10,2012-10-15 08:55:00
5:55 AM,72.7,72.3,99,29.94,8.0,ENE,3.5,-,N/A,,Overcast,60,2012-10-15 09:55:00
5:57 AM,73.4,71.6,94,29.93,8.0,East,3.5,-,N/A,,Overcast,80,2012-10-15 09:57:00
6:01 AM,73.4,71.6,94,29.93,8.0,East,4.6,-,N/A,,Overcast,80,2012-10-15 10:01:00
6:55 AM,71.4,71.1,99,29.93,10.0,NE,4.6,-,N/A,,Clear,50,2012-10-15 10:55:00
7:55 AM,72.3,72.3,100,29.94,10.0,Calm,Calm,-,N/A,,Overcast,0,2012-10-15 11:55:00
8:55 AM,77.5,77.2,99,29.95,10.0,NE,3.5,-,N/A,,Clear,40,2012-10-15 12:55:00
9:55 AM,81.7,75.0,80,29.97,10.0,Calm,Calm,-,N/A,,Mostly Cloudy,0,2012-10-15 13:55:00
10:55 AM,83.8,76.5,78,29.97,10.0,North,5.8,-,N/A,,Mostly Cloudy,350,2012-10-15 14:55:00
11:55 AM,86.9,77.2,73,29.96,10.0,NNW,6.9,-,N/A,,Mostly Cloudy,340,2012-10-15 15:55:00
12:55 PM,86.9,76.5,71,29.93,10.0,WNW,3.5,-,N/A,,Mostly Cloudy,300,2012-10-15 16:55:00
1:09 PM,86.0,77.0,74,29.93,10.0,WNW,5.8,-,N/A,,Light Drizzle,300,2012-10-15 17:09:00
1:18 PM,86.0,75.2,70,29.92,10.0,Calm,Calm,-,N/A,,Mostly Cloudy,0,2012-10-15 17:18:00
1:55 PM,86.0,75.6,71,29.91,10.0,WNW,4.6,-,0.00,,Scattered Clouds,300,2012-10-15 17:55:00
2:55 PM,88.3,73.8,62,29.88,10.0,NW,6.9,-,N/A,,Clear,320,2012-10-15 18:55:00
3:55 PM,88.0,74.5,64,29.86,10.0,NW,5.8,-,N/A,,Partly Cloudy,320,2012-10-15 19:55:00
4:55 PM,86.5,74.8,68,29.84,10.0,NNW,9.2,-,N/A,,Clear,330,2012-10-15 20:55:00
5:55 PM,82.4,72.3,71,29.84,10.0,NNW,11.5,-,N/A,,Scattered Clouds,340,2012-10-15 21:55:00
6:55 PM,80.8,71.2,73,29.85,10.0,North,5.8,-,N/A,,Partly Cloudy,360,2012-10-15 22:55:00
7:55 PM,77.9,71.4,80,29.85,10.0,North,6.9,-,N/A,,Partly Cloudy,10,2012-10-15 23:55:00
8:55 PM,77.7,72.7,84,29.87,10.0,North,4.6,-,N/A,,Partly Cloudy,10,2012-10-16 00:55:00
9:55 PM,76.5,74.7,94,29.88,10.0,North,6.9,-,N/A,,Clear,360,2012-10-16 01:55:00
10:55 PM,75.7,74.3,95,29.88,10.0,North,5.8,-,N/A,,Clear,360,2012-10-16 02:55:00
11:55 PM,74.7,73.0,95,29.88,10.0,Calm,Calm,-,N/A,,Clear,0,2012-10-16 03:55:00